"read_dt","SO2 (ppb)","flags","PMT voltage (V)","lamp voltage (V)","lamp intensity (Hz)","internal temp (C)","react chamber temp (C)","sample flow (l/min)","pres (mmHg)","SO2 bkg (ppb)","SO2 coefficient"
2013-07-13 00:00:00,3558E-4,5C000000,-0724,0945,11039,035.8,045.7,0.378,735.6,01.18,0.508
2013-07-13 00:01:00,2755E-4,5C000000,-0724,0943,11073,035.8,045.6,0.378,735.6,01.18,0.508
2013-07-13 00:02:00,3209E-4,5C000000,-0724,0943,11137,035.8,045.6,0.379,735.6,01.18,0.508
2013-07-13 00:03:00,2102E-4,5C000000,-0724,0943,11122,035.8,045.7,0.379,735.6,01.18,0.508
2013-07-13 00:04:00,3301E-4,5C000000,-0724,0944,11199,035.8,045.7,0.379,735.6,01.18,0.508
2013-07-13 00:05:00,1593E-4,5C000000,-0724,0944,11098,035.8,045.7,0.379,735.6,01.18,0.508
2013-07-13 00:06:00,3998E-4,5C000000,-0724,0943,10954,035.8,045.7,0.379,735.6,01.18,0.508
2013-07-13 00:07:00,3074E-4,5C000000,-0724,0943,11032,035.8,045.6,0.379,735.6,01.18,0.508
2013-07-13 00:08:00,3387E-4,5C000000,-0724,0944,11174,035.8,045.6,0.379,735.6,01.18,0.508
2013-07-13 00:09:00,2930E-4,5C000000,-0724,0944,11020,035.8,045.7,0.379,735.6,01.18,0.508
2013-07-13 00:10:00,2801E-4,5C000000,-0724,0943,11017,035.8,045.6,0.379,735.6,01.18,0.508
2013-07-13 00:11:00,2519E-4,5C000000,-0724,0943,11120,035.8,045.7,0.379,735.6,01.18,0.508
2013-07-13 00:12:00,3022E-4,5C000000,-0724,0944,11173,035.8,045.7,0.379,735.6,01.18,0.508
2013-07-13 00:13:00,3247E-4,5C000000,-0724,0945,11073,035.8,045.6,0.378,735.6,01.18,0.508
2013-07-13 00:14:00,3398E-4,5C000000,-0724,0944,11090,035.8,045.6,0.378,735.6,01.18,0.508
2013-07-13 00:15:00,2991E-4,5C000000,-0724,0944,11007,035.8,045.6,0.378,735.6,01.18,0.508
2013-07-13 00:16:00,2892E-4,5C000000,-0724,0944,11019,035.8,045.7,0.378,735.6,01.18,0.508
2013-07-13 00:17:00,3482E-4,5C000000,-0724,0944,11185,035.8,045.6,0.378,735.6,01.18,0.508
2013-07-13 00:18:00,2300E-4,5C000000,-0724,0944,10980,035.8,045.7,0.378,735.6,01.18,0.508
2013-07-13 00:19:00,2987E-4,5C000000,-0724,0944,11034,035.9,045.7,0.379,735.6,01.18,0.508
2013-07-13 00:20:00,2884E-4,5C000000,-0724,0943,11051,035.8,045.7,0.379,735.6,01.18,0.508
2013-07-13 00:21:00,3116E-4,5C000000,-0724,0943,10953,035.9,045.6,0.379,735.6,01.18,0.508
2013-07-13 00:22:00,2472E-4,5C000000,-0724,0944,11165,035.9,045.6,0.379,735.6,01.18,0.508
2013-07-13 00:23:00,2613E-4,5C000000,-0724,0944,11022,035.9,045.7,0.379,735.6,01.18,0.508
2013-07-13 00:24:00,2864E-4,5C000000,-0724,0945,11042,035.9,045.7,0.379,735.6,01.18,0.508
2013-07-13 00:25:00,3293E-4,5C000000,-0724,0943,11126,035.9,045.7,0.379,735.6,01.18,0.508
2013-07-13 00:26:00,3191E-4,5C000000,-0724,0944,11041,035.9,045.7,0.379,735.6,01.18,0.508
2013-07-13 00:27:00,2754E-4,5C000000,-0724,0944,11056,035.9,045.7,0.379,735.6,01.18,0.508
2013-07-13 00:28:00,2847E-4,5C000000,-0724,0944,11024,035.9,045.7,0.378,735.6,01.18,0.508
2013-07-13 00:29:00,2596E-4,5C000000,-0724,0944,11058,035.9,045.7,0.378,735.6,01.18,0.508
2013-07-13 00:30:00,3286E-4,5C000000,-0724,0944,10919,035.9,045.7,0.378,735.6,01.18,0.508
2013-07-13 00:31:00,2231E-4,5C000000,-0724,0945,11094,035.9,045.7,0.378,735.6,01.18,0.508
2013-07-13 00:32:00,2787E-4,5C000000,-0724,0944,10977,035.9,045.7,0.378,735.6,01.18,0.508
2013-07-13 00:33:00,3894E-4,5C000000,-0724,0943,11067,035.9,045.7,0.378,735.6,01.18,0.508
2013-07-13 00:34:00,3148E-4,5C000000,-0724,0944,11041,035.9,045.6,0.378,735.6,01.18,0.508
2013-07-13 00:35:00,3694E-4,5C000000,-0724,0944,11253,035.9,045.7,0.379,735.5,01.18,0.508
2013-07-13 00:36:00,3151E-4,5C000000,-0724,0944,11116,035.9,045.7,0.379,735.6,01.18,0.508
2013-07-13 00:37:00,2791E-4,5C000000,-0724,0944,10970,035.9,045.7,0.379,735.6,01.18,0.508
2013-07-13 00:38:00,3059E-4,5C000000,-0724,0943,11094,035.9,045.7,0.379,735.6,01.18,0.508
2013-07-13 00:39:00,3031E-4,5C000000,-0724,0945,11099,035.9,045.7,0.379,735.6,01.18,0.508
2013-07-13 00:40:00,3156E-4,5C000000,-0724,0945,11241,035.9,045.7,0.379,735.6,01.18,0.508
2013-07-13 00:41:00,2413E-4,5C000000,-0724,0944,11142,036.0,045.7,0.378,735.6,01.18,0.508
2013-07-13 00:42:00,3315E-4,5C000000,-0724,0945,11181,036.0,045.7,0.379,735.6,01.18,0.508
2013-07-13 00:43:00,2152E-4,5C000000,-0724,0944,11036,036.0,045.7,0.378,735.6,01.18,0.508
2013-07-13 00:44:00,2327E-4,5C000000,-0724,0945,11072,036.0,045.7,0.378,735.5,01.18,0.508
2013-07-13 00:45:00,3166E-4,5C000000,-0724,0944,11148,036.0,045.7,0.378,735.5,01.18,0.508
2013-07-13 00:46:00,2684E-4,5C000000,-0724,0945,11092,036.0,045.7,0.378,735.5,01.18,0.508
2013-07-13 00:47:00,2885E-4,5C000000,-0724,0943,11059,036.0,045.7,0.378,735.6,01.18,0.508
2013-07-13 00:48:00,3021E-4,5C000000,-0724,0944,10977,036.0,045.7,0.378,735.5,01.18,0.508
2013-07-13 00:49:00,3580E-4,5C000000,-0724,0944,11045,036.0,045.7,0.378,735.6,01.18,0.508
2013-07-13 00:50:00,3239E-4,5C000000,-0724,0944,11131,036.0,045.7,0.379,735.6,01.18,0.508
2013-07-13 00:51:00,3125E-4,5C000000,-0724,0943,11088,036.0,045.7,0.379,735.6,01.18,0.508
2013-07-13 00:52:00,2772E-4,5C000000,-0724,0945,11137,036.0,045.7,0.379,735.6,01.18,0.508
2013-07-13 00:53:00,3196E-4,5C000000,-0724,0945,11013,036.0,045.7,0.379,735.6,01.18,0.508
2013-07-13 00:54:00,3929E-4,5C000000,-0724,0945,11204,036.1,045.6,0.378,735.6,01.18,0.508
2013-07-13 00:55:00,3344E-4,5C000000,-0724,0944,11048,036.0,045.7,0.378,735.6,01.18,0.508
2013-07-13 00:56:00,2050E-4,5C000000,-0724,0945,11165,036.0,045.7,0.378,735.6,01.18,0.508
2013-07-13 00:57:00,2676E-4,5C000000,-0724,0944,11006,036.0,045.7,0.378,735.6,01.18,0.508
2013-07-13 00:58:00,2633E-4,5C000000,-0724,0945,10989,036.0,045.7,0.378,735.6,01.18,0.508
2013-07-13 00:59:00,2985E-4,5C000000,-0724,0946,11057,036.0,045.6,0.378,735.6,01.18,0.508
2013-07-13 01:00:00,3412E-4,5C000000,-0724,0944,11181,036.1,045.7,0.378,735.6,01.18,0.508
2013-07-13 01:01:00,2587E-4,5C000000,-0724,0944,10992,036.0,045.7,0.378,735.6,01.18,0.508
2013-07-13 01:02:00,2808E-4,5C000000,-0724,0944,11082,036.1,045.7,0.378,735.6,01.18,0.508
2013-07-13 01:03:00,3010E-4,5C000000,-0724,0945,11111,036.1,045.7,0.379,735.6,01.18,0.508
2013-07-13 01:04:00,2818E-4,5C000000,-0724,0944,11026,036.1,045.7,0.379,735.6,01.18,0.508
2013-07-13 01:05:00,3607E-4,5C000000,-0724,0945,11136,036.1,045.7,0.379,735.6,01.18,0.508
2013-07-13 01:06:00,3175E-4,5C000000,-0724,0945,10999,036.1,045.7,0.378,735.6,01.18,0.508
2013-07-13 01:07:00,2722E-4,5C000000,-0724,0944,11071,036.1,045.7,0.378,735.6,01.18,0.508
2013-07-13 01:08:00,3203E-4,5C000000,-0724,0944,11122,036.1,045.7,0.378,735.5,01.18,0.508
2013-07-13 01:09:00,2188E-4,5C000000,-0724,0945,11200,036.1,045.7,0.378,735.6,01.18,0.508
2013-07-13 01:10:00,3298E-4,5C000000,-0724,0944,10938,036.1,045.7,0.378,735.6,01.18,0.508
2013-07-13 01:11:00,3354E-4,5C000000,-0724,0944,11028,036.1,045.7,0.378,735.6,01.18,0.508
2013-07-13 01:12:00,2742E-4,5C000000,-0724,0944,11000,036.1,045.7,0.378,735.6,01.18,0.508
2013-07-13 01:13:00,3190E-4,5C000000,-0724,0944,11028,036.1,045.7,0.378,735.6,01.18,0.508
2013-07-13 01:14:00,3535E-4,5C000000,-0724,0945,11111,036.1,045.7,0.379,735.6,01.18,0.508
2013-07-13 01:15:00,3862E-4,5C000000,-0724,0945,11132,036.1,045.7,0.379,735.6,01.18,0.508
2013-07-13 01:16:00,3529E-4,5C000000,-0724,0945,11026,036.1,045.7,0.378,735.5,01.18,0.508
2013-07-13 01:17:00,3231E-4,5C000000,-0724,0944,11104,036.1,045.7,0.378,735.6,01.18,0.508
2013-07-13 01:18:00,3352E-4,5C000000,-0724,0945,11024,036.1,045.7,0.378,735.6,01.18,0.508
2013-07-13 01:19:00,3092E-4,5C000000,-0724,0944,11103,036.1,045.6,0.378,735.6,01.18,0.508
2013-07-13 01:20:00,2854E-4,5C000000,-0724,0945,10997,036.1,045.7,0.378,735.5,01.18,0.508
2013-07-13 01:21:00,2500E-4,5C000000,-0724,0944,11047,036.1,045.7,0.378,735.5,01.18,0.508
2013-07-13 01:22:00,3595E-4,5C000000,-0724,0945,11112,036.1,045.7,0.378,735.5,01.18,0.508
2013-07-13 01:23:00,2998E-4,5C000000,-0724,0944,11141,036.1,045.7,0.378,735.6,01.18,0.508
2013-07-13 01:24:00,2475E-4,5C000000,-0724,0945,11025,036.1,045.7,0.378,735.6,01.18,0.508
2013-07-13 01:25:00,3021E-4,5C000000,-0724,0945,11140,036.1,045.7,0.379,735.6,01.18,0.508
2013-07-13 01:26:00,3116E-4,5C000000,-0724,0945,11023,036.1,045.7,0.378,735.6,01.18,0.508
2013-07-13 01:27:00,1789E-4,5C000000,-0724,0944,11227,036.1,045.7,0.378,735.6,01.18,0.508
2013-07-13 01:28:00,3061E-4,5C000000,-0724,0943,11184,036.2,045.7,0.378,735.6,01.18,0.508
2013-07-13 01:29:00,3257E-4,5C000000,-0724,0945,11052,036.1,045.7,0.378,735.6,01.18,0.508
2013-07-13 01:30:00,2935E-4,5C000000,-0724,0945,11026,036.2,045.7,0.378,735.6,01.18,0.508
2013-07-13 01:31:00,2979E-4,5C000000,-0724,0946,11150,036.2,045.7,0.378,735.6,01.18,0.508
2013-07-13 01:32:00,2362E-4,5C000000,-0724,0944,10881,036.2,045.7,0.378,735.6,01.18,0.508
2013-07-13 01:33:00,2999E-4,5C000000,-0724,0944,11117,036.2,045.7,0.378,735.6,01.18,0.508
2013-07-13 01:34:00,3126E-4,5C000000,-0724,0946,11098,036.2,045.7,0.378,735.6,01.18,0.508
2013-07-13 01:35:00,3502E-4,5C000000,-0724,0944,11022,036.2,045.7,0.378,735.6,01.18,0.508
2013-07-13 01:36:00,3294E-4,5C000000,-0724,0945,11109,036.2,045.7,0.378,735.6,01.18,0.508
2013-07-13 01:37:00,3272E-4,5C000000,-0724,0945,10802,036.2,045.7,0.378,735.6,01.18,0.508
2013-07-13 01:38:00,2430E-4,5C000000,-0724,0945,11093,036.2,045.7,0.378,735.6,01.18,0.508
2013-07-13 01:39:00,2316E-4,5C000000,-0724,0944,11084,036.2,045.7,0.378,735.6,01.18,0.508
2013-07-13 01:40:00,2873E-4,5C000000,-0724,0946,11144,036.2,045.7,0.378,735.6,01.18,0.508
2013-07-13 01:41:00,2615E-4,5C000000,-0724,0945,11068,036.3,045.7,0.378,735.6,01.18,0.508
2013-07-13 01:42:00,2895E-4,5C000000,-0724,0944,11086,036.3,045.7,0.378,735.7,01.18,0.508
2013-07-13 01:43:00,3854E-4,5C000000,-0724,0945,11054,036.2,045.7,0.378,735.7,01.18,0.508
2013-07-13 01:44:00,3559E-4,5C000000,-0724,0945,11141,036.3,045.7,0.378,735.7,01.18,0.508
2013-07-13 01:45:00,3616E-4,5C000000,-0724,0946,11146,036.3,045.7,0.378,735.7,01.18,0.508
2013-07-13 01:46:00,3457E-4,5C000000,-0724,0946,11208,036.3,045.7,0.378,735.7,01.18,0.508
2013-07-13 01:47:00,3729E-4,5C000000,-0724,0944,10969,036.3,045.7,0.378,735.7,01.18,0.508
2013-07-13 01:48:00,3189E-4,5C000000,-0724,0945,10844,036.3,045.7,0.378,735.7,01.18,0.508
2013-07-13 01:49:00,1578E-4,5C000000,-0724,0945,11090,036.3,045.7,0.378,735.7,01.18,0.508
2013-07-13 01:50:00,3467E-4,5C000000,-0724,0945,11008,036.3,045.7,0.378,735.7,01.18,0.508
2013-07-13 01:51:00,3248E-4,5C000000,-0724,0944,11001,036.3,045.7,0.378,735.7,01.18,0.508
2013-07-13 01:52:00,2904E-4,5C000000,-0724,0945,11118,036.3,045.7,0.378,735.8,01.18,0.508
2013-07-13 01:53:00,3274E-4,5C000000,-0724,0945,11072,036.3,045.7,0.377,735.7,01.18,0.508
2013-07-13 01:54:00,2016E-4,5C000000,-0724,0945,11164,036.3,045.7,0.378,735.8,01.18,0.508
2013-07-13 01:55:00,2944E-4,5C000000,-0724,0945,11147,036.3,045.7,0.378,735.7,01.18,0.508
2013-07-13 01:56:00,3284E-4,5C000000,-0724,0945,11067,036.3,045.7,0.378,735.7,01.18,0.508
2013-07-13 01:57:00,2564E-4,5C000000,-0724,0945,11076,036.3,045.7,0.378,735.7,01.18,0.508
2013-07-13 01:58:00,2087E-4,5C000000,-0724,0945,11208,036.3,045.7,0.378,735.7,01.18,0.508
2013-07-13 01:59:00,3470E-4,5C000000,-0724,0945,11017,036.4,045.7,0.377,735.7,01.18,0.508
2013-07-13 02:00:00,2882E-4,5C000000,-0724,0944,11082,036.4,045.7,0.377,735.7,01.18,0.508
2013-07-13 02:01:00,3046E-4,5C000000,-0724,0946,11137,036.4,045.7,0.378,735.7,01.18,0.508
2013-07-13 02:02:00,2633E-4,5C000000,-0724,0946,11098,036.4,045.7,0.378,735.7,01.18,0.508
2013-07-13 02:03:00,2871E-4,5C000000,-0724,0945,11124,036.4,045.7,0.378,735.7,01.18,0.508
2013-07-13 02:04:00,2982E-4,5C000000,-0724,0946,11106,036.4,045.7,0.378,735.8,01.18,0.508
2013-07-13 02:05:00,2842E-4,5C000000,-0724,0945,11147,036.4,045.7,0.378,735.8,01.18,0.508
2013-07-13 02:06:00,2716E-4,5C000000,-0724,0945,11099,036.4,045.7,0.377,735.7,01.18,0.508
2013-07-13 02:07:00,4255E-4,5C000000,-0724,0946,11104,036.4,045.7,0.377,735.7,01.18,0.508
2013-07-13 02:08:00,3368E-4,5C000000,-0724,0946,11100,036.4,045.7,0.377,735.7,01.18,0.508
2013-07-13 02:09:00,2493E-4,5C000000,-0724,0944,11155,036.4,045.7,0.378,735.7,01.18,0.508
2013-07-13 02:10:00,3741E-4,5C000000,-0724,0945,11002,036.4,045.7,0.378,735.7,01.18,0.508
2013-07-13 02:11:00,3408E-4,5C000000,-0724,0945,11119,036.4,045.7,0.378,735.8,01.18,0.508
2013-07-13 02:12:00,1831E-4,5C000000,-0724,0946,10971,036.4,045.7,0.378,735.8,01.18,0.508
2013-07-13 02:13:00,2360E-4,5C000000,-0724,0945,11102,036.4,045.7,0.377,735.8,01.18,0.508
2013-07-13 02:14:00,2975E-4,5C000000,-0724,0945,11141,036.4,045.7,0.377,735.8,01.18,0.508
2013-07-13 02:15:00,3009E-4,5C000000,-0724,0946,11099,036.5,045.7,0.377,735.8,01.18,0.508
2013-07-13 02:16:00,3045E-4,5C000000,-0724,0946,11047,036.5,045.7,0.378,735.8,01.18,0.508
2013-07-13 02:17:00,2716E-4,5C000000,-0724,0946,11127,036.5,045.7,0.378,735.8,01.18,0.508
2013-07-13 02:18:00,3763E-4,5C000000,-0724,0945,11023,036.5,045.7,0.378,735.8,01.18,0.508
2013-07-13 02:19:00,3230E-4,5C000000,-0724,0945,11202,036.5,045.7,0.378,735.8,01.18,0.508
2013-07-13 02:20:00,3055E-4,5C000000,-0724,0945,10738,036.5,045.7,0.377,735.8,01.18,0.508
2013-07-13 02:21:00,2126E-4,5C000000,-0724,0946,11106,036.5,045.7,0.377,735.8,01.18,0.508
2013-07-13 02:22:00,4194E-4,5C000000,-0724,0947,11103,036.5,045.7,0.377,735.8,01.18,0.508
2013-07-13 02:23:00,2117E-4,5C000000,-0724,0946,10909,036.5,045.7,0.378,735.8,01.18,0.508
2013-07-13 02:24:00,2629E-4,5C000000,-0724,0946,11087,036.5,045.7,0.378,735.8,01.18,0.508
2013-07-13 02:25:00,3734E-4,5C000000,-0724,0946,11039,036.5,045.7,0.378,735.8,01.18,0.508
2013-07-13 02:26:00,3594E-4,5C000000,-0724,0946,11149,036.5,045.7,0.377,735.8,01.18,0.508
2013-07-13 02:27:00,3003E-4,5C000000,-0724,0945,11006,036.5,045.7,0.377,735.8,01.18,0.508
2013-07-13 02:28:00,3926E-4,5C000000,-0724,0946,11147,036.5,045.7,0.377,735.8,01.18,0.508
2013-07-13 02:29:00,3093E-4,5C000000,-0724,0947,10981,036.6,045.7,0.377,735.8,01.18,0.508
2013-07-13 02:30:00,3604E-4,5C000000,-0724,0945,10997,036.6,045.7,0.378,735.8,01.18,0.508
2013-07-13 02:31:00,2823E-4,5C000000,-0724,0946,11131,036.6,045.7,0.378,735.8,01.18,0.508
2013-07-13 02:32:00,2785E-4,5C000000,-0724,0945,11090,036.6,045.7,0.377,735.9,01.18,0.508
2013-07-13 02:33:00,2763E-4,5C000000,-0724,0946,11073,036.6,045.7,0.377,735.9,01.18,0.508
2013-07-13 02:34:00,2631E-4,5C000000,-0724,0947,11154,036.6,045.7,0.377,735.9,01.18,0.508
2013-07-13 02:35:00,4345E-4,5C000000,-0724,0945,11084,036.6,045.7,0.377,735.9,01.18,0.508
2013-07-13 02:36:00,2728E-4,5C000000,-0724,0946,11061,036.6,045.7,0.377,735.9,01.18,0.508
2013-07-13 02:37:00,2765E-4,5C000000,-0724,0947,11039,036.6,045.7,0.378,735.9,01.18,0.508
2013-07-13 02:38:00,2258E-4,5C000000,-0724,0945,11101,036.6,045.7,0.378,735.9,01.18,0.508
2013-07-13 02:39:00,3150E-4,5C000000,-0724,0945,10963,036.6,045.7,0.377,735.9,01.18,0.508
2013-07-13 02:40:00,2303E-4,5C000000,-0724,0946,11084,036.6,045.7,0.377,735.8,01.18,0.508
2013-07-13 02:41:00,1917E-4,5C000000,-0724,0946,11131,036.6,045.7,0.377,735.9,01.18,0.508
2013-07-13 02:42:00,2017E-4,5C000000,-0724,0946,11143,036.6,045.7,0.377,735.9,01.18,0.508
2013-07-13 02:43:00,2412E-4,5C000000,-0724,0946,11116,036.6,045.7,0.378,735.9,01.18,0.508
2013-07-13 02:44:00,3241E-4,5C000000,-0724,0945,11064,036.6,045.7,0.378,735.8,01.18,0.508
2013-07-13 02:45:00,3280E-4,5C000000,-0724,0946,10987,036.6,045.7,0.377,735.8,01.18,0.508
2013-07-13 02:46:00,3448E-4,5C000000,-0724,0946,10976,036.6,045.7,0.377,735.8,01.18,0.508
2013-07-13 02:47:00,2829E-4,5C000000,-0724,0946,11183,036.6,045.7,0.377,735.7,01.18,0.508
2013-07-13 02:48:00,2612E-4,5C000000,-0724,0945,11017,036.6,045.7,0.377,735.8,01.18,0.508
2013-07-13 02:49:00,2787E-4,5C000000,-0724,0946,11019,036.6,045.7,0.378,735.8,01.18,0.508
2013-07-13 02:50:00,2540E-4,5C000000,-0724,0946,11038,036.6,045.7,0.377,735.8,01.18,0.508
2013-07-13 02:51:00,3824E-4,5C000000,-0724,0947,10945,036.6,045.7,0.377,735.8,01.18,0.508
2013-07-13 02:52:00,3292E-4,5C000000,-0724,0946,10972,036.6,045.7,0.377,735.9,01.18,0.508
2013-07-13 02:53:00,3177E-4,5C000000,-0724,0946,11078,036.7,045.7,0.377,735.8,01.18,0.508
2013-07-13 02:54:00,2977E-4,5C000000,-0724,0947,10926,036.6,045.7,0.377,735.8,01.18,0.508
2013-07-13 02:55:00,3228E-4,5C000000,-0724,0946,11094,036.7,045.7,0.378,735.8,01.18,0.508
2013-07-13 02:56:00,2759E-4,5C000000,-0724,0946,11184,036.7,045.7,0.377,735.9,01.18,0.508
2013-07-13 02:57:00,3192E-4,5C000000,-0724,0946,11152,036.7,045.7,0.377,735.9,01.18,0.508
2013-07-13 02:58:00,2983E-4,5C000000,-0724,0946,11146,036.7,045.7,0.377,735.9,01.18,0.508
2013-07-13 02:59:00,2774E-4,5C000000,-0724,0946,10959,036.7,045.7,0.377,735.8,01.18,0.508
2013-07-13 03:00:00,2278E-4,5C000000,-0724,0946,11071,036.7,045.7,0.378,735.9,01.18,0.508
2013-07-13 03:01:00,3612E-4,5C000000,-0724,0946,11136,036.7,045.7,0.377,735.9,01.18,0.508
2013-07-13 03:02:00,3307E-4,5C000000,-0724,0946,11079,036.7,045.7,0.377,735.8,01.18,0.508
2013-07-13 03:03:00,3522E-4,5C000000,-0724,0946,11075,036.7,045.7,0.377,735.8,01.18,0.508
2013-07-13 03:04:00,2955E-4,5C000000,-0724,0945,11125,036.7,045.7,0.377,735.8,01.18,0.508
2013-07-13 03:05:00,3004E-4,5C000000,-0724,0946,11129,036.7,045.7,0.377,735.8,01.18,0.508
2013-07-13 03:06:00,3123E-4,5C000000,-0724,0947,11011,036.7,045.7,0.377,735.9,01.18,0.508
2013-07-13 03:07:00,3541E-4,5C000000,-0724,0947,11065,036.7,045.7,0.377,735.9,01.18,0.508
2013-07-13 03:08:00,3614E-4,5C000000,-0724,0947,10981,036.7,045.7,0.377,735.9,01.18,0.508
2013-07-13 03:09:00,2403E-4,5C000000,-0724,0946,11051,036.7,045.7,0.377,735.9,01.18,0.508
2013-07-13 03:10:00,3602E-4,5C000000,-0724,0945,11029,036.7,045.7,0.377,735.9,01.18,0.508
2013-07-13 03:11:00,2803E-4,5C000000,-0724,0947,10952,036.7,045.7,0.377,735.8,01.18,0.508
2013-07-13 03:12:00,2939E-4,5C000000,-0724,0946,11128,036.8,045.7,0.377,735.9,01.18,0.508
2013-07-13 03:13:00,4226E-4,5C000000,-0724,0948,11104,036.8,045.7,0.377,735.8,01.18,0.508
2013-07-13 03:14:00,3459E-4,5C000000,-0724,0946,10761,036.8,045.7,0.377,735.8,01.18,0.508
2013-07-13 03:15:00,3287E-4,5C000000,-0724,0947,11108,036.8,045.7,0.377,735.8,01.18,0.508
2013-07-13 03:16:00,3149E-4,5C000000,-0724,0945,10983,036.8,045.7,0.377,735.8,01.18,0.508
2013-07-13 03:17:00,3562E-4,5C000000,-0724,0947,11044,036.8,045.7,0.377,735.9,01.18,0.508
2013-07-13 03:18:00,3048E-4,5C000000,-0724,0946,10979,036.8,045.7,0.377,735.9,01.18,0.508
2013-07-13 03:19:00,4079E-4,5C000000,-0724,0947,11058,036.8,045.7,0.377,735.8,01.18,0.508
2013-07-13 03:20:00,2252E-4,5C000000,-0724,0945,10907,036.8,045.7,0.377,735.9,01.18,0.508
2013-07-13 03:21:00,2531E-4,5C000000,-0724,0946,10946,036.8,045.7,0.377,735.9,01.18,0.508
2013-07-13 03:22:00,2818E-4,5C000000,-0724,0944,10999,036.8,045.7,0.377,735.9,01.18,0.508
2013-07-13 03:23:00,2990E-4,5C000000,-0724,0945,11078,036.8,045.7,0.377,735.9,01.18,0.508
2013-07-13 03:24:00,3021E-4,5C000000,-0724,0945,11046,036.8,045.7,0.376,735.9,01.18,0.508
2013-07-13 03:25:00,3504E-4,5C000000,-0724,0946,10945,036.8,045.7,0.377,735.9,01.18,0.508
2013-07-13 03:26:00,2235E-4,5C000000,-0724,0945,11006,036.8,045.7,0.377,735.9,01.18,0.508
2013-07-13 03:27:00,1978E-4,5C000000,-0724,0946,11022,036.8,045.7,0.377,735.9,01.18,0.508
2013-07-13 03:28:00,3110E-4,5C000000,-0724,0946,11074,036.8,045.7,0.377,735.9,01.18,0.508
2013-07-13 03:29:00,3237E-4,5C000000,-0724,0946,11167,036.9,045.7,0.377,735.9,01.18,0.508
2013-07-13 03:30:00,2551E-4,5C000000,-0724,0944,11140,036.8,045.7,0.377,735.9,01.18,0.508
2013-07-13 03:31:00,3593E-4,5C000000,-0724,0945,11089,036.9,045.7,0.377,735.9,01.18,0.508
2013-07-13 03:32:00,2975E-4,5C000000,-0724,0945,11117,036.8,045.7,0.377,735.9,01.18,0.508
2013-07-13 03:33:00,3952E-4,5C000000,-0724,0945,10982,036.9,045.7,0.377,735.9,01.18,0.508
2013-07-13 03:34:00,3193E-4,5C000000,-0724,0943,11085,036.9,045.7,0.377,735.9,01.18,0.508
2013-07-13 03:35:00,3927E-4,5C000000,-0724,0945,11119,036.9,045.7,0.377,735.9,01.18,0.508
2013-07-13 03:36:00,3585E-4,5C000000,-0724,0944,11118,036.9,045.7,0.377,735.9,01.18,0.508
2013-07-13 03:37:00,3250E-4,5C000000,-0724,0945,10862,036.9,045.7,0.377,735.9,01.18,0.508
2013-07-13 03:38:00,4108E-4,5C000000,-0724,0944,11063,036.9,045.7,0.376,735.8,01.18,0.508
2013-07-13 03:39:00,3896E-4,5C000000,-0724,0947,11065,036.9,045.7,0.377,735.9,01.18,0.508
2013-07-13 03:40:00,3920E-4,5C000000,-0724,0945,10894,036.9,045.7,0.377,735.8,01.18,0.508
2013-07-13 03:41:00,3435E-4,5C000000,-0724,0943,10982,036.9,045.7,0.377,735.9,01.18,0.508
2013-07-13 03:42:00,2737E-4,5C000000,-0724,0946,10998,036.9,045.7,0.376,735.8,01.18,0.508
2013-07-13 03:43:00,2999E-4,5C000000,-0724,0947,11126,036.9,045.7,0.376,735.8,01.18,0.508
2013-07-13 03:44:00,2821E-4,5C000000,-0724,0946,11037,036.9,045.7,0.377,735.8,01.18,0.508
2013-07-13 03:45:00,2978E-4,5C000000,-0724,0947,11059,036.9,045.7,0.377,735.9,01.18,0.508
2013-07-13 03:46:00,3034E-4,5C000000,-0724,0944,10884,036.9,045.7,0.377,735.9,01.18,0.508
2013-07-13 03:47:00,2944E-4,5C000000,-0724,0947,11157,037.0,045.7,0.376,735.9,01.18,0.508
2013-07-13 03:48:00,3507E-4,5C000000,-0724,0946,11100,037.0,045.7,0.377,735.9,01.18,0.508
2013-07-13 03:49:00,2735E-4,5C000000,-0724,0945,11048,037.0,045.7,0.377,735.9,01.18,0.508
2013-07-13 03:50:00,2293E-4,5C000000,-0724,0946,11109,037.0,045.7,0.377,735.9,01.18,0.508
2013-07-13 03:51:00,3402E-4,5C000000,-0724,0946,11105,037.0,045.7,0.376,735.9,01.18,0.508
2013-07-13 03:52:00,3708E-4,5C000000,-0724,0947,11088,037.0,045.7,0.377,735.9,01.18,0.508
2013-07-13 03:53:00,3320E-4,5C000000,-0724,0946,10986,037.0,045.7,0.377,735.9,01.18,0.508
2013-07-13 03:54:00,2701E-4,5C000000,-0724,0947,11070,037.0,045.7,0.377,735.9,01.18,0.508
2013-07-13 03:55:00,2986E-4,5C000000,-0724,0946,11148,037.0,045.7,0.376,735.9,01.18,0.508
2013-07-13 03:56:00,3482E-4,5C000000,-0724,0946,11035,037.0,045.7,0.376,735.9,01.18,0.508
2013-07-13 03:57:00,3417E-4,5C000000,-0724,0946,11057,037.0,045.7,0.377,735.9,01.18,0.508
2013-07-13 03:58:00,3528E-4,5C000000,-0724,0947,11113,037.0,045.7,0.377,735.9,01.18,0.508
2013-07-13 03:59:00,3713E-4,5C000000,-0724,0946,11090,037.0,045.7,0.376,735.8,01.18,0.508
2013-07-13 04:00:00,3632E-4,5C000000,-0724,0947,10954,037.0,045.7,0.376,735.8,01.18,0.508
2013-07-13 04:01:00,3244E-4,5C000000,-0724,0947,10923,037.0,045.7,0.377,735.8,01.18,0.508
2013-07-13 04:02:00,3723E-4,5C000000,-0724,0947,11213,037.0,045.7,0.377,735.8,01.18,0.508
2013-07-13 04:03:00,2955E-4,5C000000,-0724,0946,11186,037.0,045.7,0.376,735.9,01.18,0.508
2013-07-13 04:04:00,3468E-4,5C000000,-0724,0946,11064,037.0,045.7,0.376,735.8,01.18,0.508
2013-07-13 04:05:00,2210E-4,5C000000,-0724,0947,11089,037.0,045.7,0.377,735.8,01.18,0.508
2013-07-13 04:06:00,3310E-4,5C000000,-0724,0945,11079,037.0,045.7,0.377,735.8,01.18,0.508
2013-07-13 04:07:00,3611E-4,5C000000,-0724,0945,10955,037.0,045.7,0.376,735.8,01.18,0.508
2013-07-13 04:08:00,4205E-4,5C000000,-0724,0947,11054,037.0,045.7,0.376,735.8,01.18,0.508
2013-07-13 04:09:00,3457E-4,5C000000,-0724,0947,10930,037.0,045.7,0.377,735.8,01.18,0.508
2013-07-13 04:10:00,3330E-4,5C000000,-0724,0947,11040,037.0,045.7,0.377,735.8,01.18,0.508
2013-07-13 04:11:00,3540E-4,5C000000,-0724,0946,11128,037.0,045.7,0.376,735.8,01.18,0.508
2013-07-13 04:12:00,2561E-4,5C000000,-0724,0945,10917,037.1,045.7,0.376,735.8,01.18,0.508
2013-07-13 04:13:00,2997E-4,5C000000,-0724,0946,11460,037.0,045.7,0.377,735.8,01.18,0.508
2013-07-13 04:14:00,3454E-4,5C000000,-0724,0945,10987,037.0,045.7,0.377,735.8,01.18,0.508
2013-07-13 04:15:00,3084E-4,5C000000,-0724,0945,10921,037.1,045.7,0.377,735.8,01.18,0.508
2013-07-13 04:16:00,3511E-4,5C000000,-0724,0946,11066,037.1,045.7,0.376,735.8,01.18,0.508
2013-07-13 04:17:00,3941E-4,5C000000,-0724,0944,11076,037.0,045.7,0.376,735.8,01.18,0.508
2013-07-13 04:18:00,3928E-4,5C000000,-0724,0943,11055,037.1,045.7,0.377,735.8,01.18,0.508
2013-07-13 04:19:00,2986E-4,5C000000,-0724,0943,11098,037.1,045.7,0.376,735.7,01.18,0.508
2013-07-13 04:20:00,3253E-4,5C000000,-0724,0946,11115,037.1,045.7,0.376,735.7,01.18,0.508